BREEZE-KM R/B, 41336

Orbit data source: Space-Track

BREEZE-KM R/B, 41336 is space debris in SSO originally from a launch on Tue, 16 Feb 2016 UTC launched from the Plesetsk Missile And Space Complex (PKMTR). Debris objects in space refer to the collection of defunct objects orbiting the Earth. Examples of debris include non-operational satellites, rocket bodies, and fragments generated from explosions, collisions, or faulty payload assembly.

Loading next visibility...
Identifier
41336, 2016-011B
Orbit
SSO
Country
Flag of CISCIS
Related business
Manufacturer
Khrunichev
Mission
Spacecraft
Bus & Motor
BRIZ, S5.92
Mass
2,370 kg wet, 2,370 kg dry
Launch date (UTC)
2016-02-16 (10 years ago)
Launch vehicle
Unknown
Launch site
Plesetsk Missile And Space Complex (PKMTR)
Object type
Payload
Rocket body
Debris
Shape & HBR
Hex Cyl + 1 Rod, 2.0 m
Radar Cross Section
10.190 m², Large (>1 m²)

Expand to show TLE details & history
Last TLE update: 1 day ago

TLE from 1 day ago
0 BREEZE-KM R/B
1 41336U 16011B   25349.51682769  .00006631  00000-0  18913-3 0  9994
2 41336  98.6764 186.9601 0146891 350.9925   8.8678 15.26369986539416
Epoch: 2025-12-15T12:24Z
TLE epoch observation values (Epoch: 2025-12-15T12:24:13.912Z)
Latitude
-0°
Longitude
-83.51213°
Altitude
390.117 km
Speed
7.732 km/s
True Right ascension
12h 27m 50s
True Declination
0° 00' 00"
Sunlit
Object was in daylight at epoch
Visualization orbit readout
Latitude
Unknown
Longitude
Unknown
Altitude
Unknown
Speed
Unknown
Apparent Right ascension
Unknown
Apparent Declination
Unknown
Sunlit
N/A
Visualization observer readout
Local Sidereal Time
13:59:14
Azimuth
Unknown
Elevation
Unknown
Doppler factor
Unknown
Orbital elements
Apogee altitude
584.484 km
Perigee altitude
382.896 km
Semi-major axis
6,861.827 km
Eccentricity
0.01469
Inclination
98.6764°
RAAN
186.9601°
Arg. of periapsis
350.9925°
True anomaly
9.13207°
Mean anomaly
8.8678°
Eccentric anomaly
8.99945°
Mean motion
3.81842 °/min
Orbital period
94.28 mins
BSTAR
0.00018913
Loading maneuver chart data...
Computing Atmospheric mass density...
Loading historical data...
Loading historical data...
Loading historical data...
Loading historical data...
Loading historical data...
Loading historical data...
Loading historical data...
Other satellites on launch #11 in the year 2016 (2016-02-16 UTC)

Documentation

Showing up to 5 results
|